Time,TemperatureF,DewpointF,PressureIn,WindDirection,WindDirectionDegrees,WindSpeedMPH,WindSpeedGustMPH,Humidity,HourlyPrecipIn,Conditions,Clouds,dailyrainin,SoftwareType,DateUTC
2013-04-02 00:04:00,28.8,20.0,30.23,NW,323,2.0,5.0,70,0.00,,,0.00,weatherlink.com 1.10,2013-04-02 05:04:00,
2013-04-02 00:20:00,28.6,20.0,30.23,NNW,336,2.0,4.0,71,0.00,,,0.00,weatherlink.com 1.10,2013-04-02 05:20:00,
2013-04-02 00:34:00,28.1,20.0,30.24,NNW,338,1.0,3.0,72,0.00,,,0.00,weatherlink.com 1.10,2013-04-02 05:34:00,
2013-04-02 00:49:00,27.8,20.0,30.24,NNW,330,0.0,5.0,72,0.00,,,0.00,weatherlink.com 1.10,2013-04-02 05:49:00,
2013-04-02 01:05:00,27.5,20.0,30.25,NNW,331,0.0,3.0,72,0.00,,,0.00,weatherlink.com 1.10,2013-04-02 06:05:00,
2013-04-02 01:19:00,27.4,19.0,30.25,WNW,287,1.0,2.0,72,0.00,,,0.00,weatherlink.com 1.10,2013-04-02 06:19:00,
2013-04-02 01:34:00,27.1,20.0,30.25,WNW,282,0.0,2.0,73,0.00,,,0.00,weatherlink.com 1.10,2013-04-02 06:34:00,
2013-04-02 01:49:00,27.0,19.0,30.25,West,269,1.0,3.0,73,0.00,,,0.00,weatherlink.com 1.10,2013-04-02 06:49:00,
2013-04-02 02:04:00,26.7,19.0,30.25,NW,324,1.0,3.0,74,0.00,,,0.00,weatherlink.com 1.10,2013-04-02 07:04:00,
2013-04-02 02:19:00,26.5,19.0,30.25,NNW,327,1.0,4.0,74,0.00,,,0.00,weatherlink.com 1.10,2013-04-02 07:19:00,
2013-04-02 02:34:00,26.5,19.0,30.25,WNW,284,1.0,3.0,73,0.00,,,0.00,weatherlink.com 1.10,2013-04-02 07:34:00,
2013-04-02 02:49:00,26.2,19.0,30.25,NW,317,0.0,2.0,73,0.00,,,0.00,weatherlink.com 1.10,2013-04-02 07:49:00,
2013-04-02 03:04:00,26.2,19.0,30.25,West,278,1.0,2.0,74,0.00,,,0.00,weatherlink.com 1.10,2013-04-02 08:04:00,
2013-04-02 03:19:00,26.1,19.0,30.25,West,271,3.0,3.0,74,0.00,,,0.00,weatherlink.com 1.10,2013-04-02 08:19:00,
2013-04-02 03:34:00,26.0,19.0,30.25,West,271,0.0,4.0,75,0.00,,,0.00,weatherlink.com 1.10,2013-04-02 08:34:00,
2013-04-02 03:49:00,25.7,19.0,30.25,West,281,1.0,2.0,76,0.00,,,0.00,weatherlink.com 1.10,2013-04-02 08:49:00,
2013-04-02 04:04:00,25.6,19.0,30.25,West,271,1.0,5.0,77,0.00,,,0.00,weatherlink.com 1.10,2013-04-02 09:04:00,
2013-04-02 04:19:00,25.6,19.0,30.25,WSW,257,2.0,5.0,77,0.00,,,0.00,weatherlink.com 1.10,2013-04-02 09:19:00,
2013-04-02 04:34:00,25.6,19.0,30.25,WSW,238,0.0,5.0,77,0.00,,,0.00,weatherlink.com 1.10,2013-04-02 09:34:00,
2013-04-02 04:50:00,25.5,19.0,30.25,WSW,258,3.0,4.0,77,0.00,,,0.00,weatherlink.com 1.10,2013-04-02 09:50:00,
2013-04-02 05:05:00,25.3,19.0,30.26,West,277,2.0,4.0,77,0.00,,,0.00,weatherlink.com 1.10,2013-04-02 10:05:00,
2013-04-02 05:20:00,25.2,19.0,30.26,WSW,257,1.0,3.0,77,0.00,,,0.00,weatherlink.com 1.10,2013-04-02 10:20:00,
2013-04-02 05:35:00,25.1,19.0,30.27,WNW,299,2.0,4.0,78,0.00,,,0.00,weatherlink.com 1.10,2013-04-02 10:35:00,
2013-04-02 05:50:00,25.1,19.0,30.27,West,269,0.0,4.0,79,0.00,,,0.00,weatherlink.com 1.10,2013-04-02 10:50:00,
2013-04-02 06:05:00,24.9,20.0,30.27,West,260,3.0,4.0,80,0.00,,,0.00,weatherlink.com 1.10,2013-04-02 11:05:00,
2013-04-02 06:20:00,24.8,19.0,30.27,West,259,0.0,4.0,80,0.00,,,0.00,weatherlink.com 1.10,2013-04-02 11:20:00,
2013-04-02 06:35:00,24.6,20.0,30.27,WSW,256,1.0,4.0,81,0.00,,,0.00,weatherlink.com 1.10,2013-04-02 11:35:00,
2013-04-02 06:50:00,24.6,20.0,30.28,WSW,252,1.0,4.0,81,0.00,,,0.00,weatherlink.com 1.10,2013-04-02 11:50:00,
2013-04-02 07:05:00,24.9,20.0,30.28,West,261,2.0,5.0,82,0.00,,,0.00,weatherlink.com 1.10,2013-04-02 12:05:00,
2013-04-02 07:20:00,25.2,20.0,30.29,West,260,0.0,4.0,81,0.00,,,0.00,weatherlink.com 1.10,2013-04-02 12:20:00,
2013-04-02 07:35:00,25.9,21.0,30.30,West,275,3.0,3.0,81,0.00,,,0.00,weatherlink.com 1.10,2013-04-02 12:35:00,
2013-04-02 07:50:00,26.8,21.0,30.30,WSW,255,0.0,5.0,80,0.00,,,0.00,weatherlink.com 1.10,2013-04-02 12:50:00,
2013-04-02 08:05:00,28.1,22.0,30.31,NNW,329,1.0,7.0,77,0.00,,,0.00,weatherlink.com 1.10,2013-04-02 13:05:00,
2013-04-02 08:20:00,29.0,22.0,30.31,NNW,343,5.0,8.0,74,0.00,,,0.00,weatherlink.com 1.10,2013-04-02 13:20:00,
2013-04-02 08:35:00,29.9,22.0,30.31,WNW,290,1.0,10.0,72,0.00,,,0.00,weatherlink.com 1.10,2013-04-02 13:35:00,
2013-04-02 08:50:00,30.7,22.0,30.31,NW,321,2.0,8.0,69,0.00,,,0.00,weatherlink.com 1.10,2013-04-02 13:50:00,
2013-04-02 09:05:00,31.4,22.0,30.31,West,266,3.0,9.0,68,0.00,,,0.00,weatherlink.com 1.10,2013-04-02 14:05:00,
2013-04-02 09:20:00,32.1,21.0,30.31,NNW,328,1.0,6.0,65,0.00,,,0.00,weatherlink.com 1.10,2013-04-02 14:20:00,
2013-04-02 09:35:00,32.6,21.0,30.31,NW,306,5.0,6.0,63,0.00,,,0.00,weatherlink.com 1.10,2013-04-02 14:35:00,
2013-04-02 09:50:00,33.4,21.0,30.32,NNW,332,3.0,6.0,61,0.00,,,0.00,weatherlink.com 1.10,2013-04-02 14:50:00,
2013-04-02 10:05:00,33.7,21.0,30.32,WSW,244,4.0,8.0,59,0.00,,,0.00,weatherlink.com 1.10,2013-04-02 15:05:00,
2013-04-02 10:20:00,34.1,20.0,30.32,SW,229,5.0,9.0,57,0.00,,,0.00,weatherlink.com 1.10,2013-04-02 15:20:00,
2013-04-02 10:35:00,34.7,20.0,30.32,SW,219,7.0,9.0,56,0.00,,,0.00,weatherlink.com 1.10,2013-04-02 15:35:00,
2013-04-02 10:50:00,35.9,18.0,30.32,SW,236,1.0,10.0,48,0.00,,,0.00,weatherlink.com 1.10,2013-04-02 15:50:00,
2013-04-02 11:05:00,36.7,18.0,30.32,WSW,246,5.0,9.0,46,0.00,,,0.00,weatherlink.com 1.10,2013-04-02 16:05:00,
2013-04-02 11:20:00,37.4,17.0,30.32,WSW,257,1.0,15.0,44,0.00,,,0.00,weatherlink.com 1.10,2013-04-02 16:20:00,
2013-04-02 11:35:00,38.5,17.0,30.31,West,272,6.0,10.0,42,0.00,,,0.00,weatherlink.com 1.10,2013-04-02 16:35:00,
2013-04-02 11:50:00,38.9,16.0,30.31,NW,319,4.0,10.0,39,0.00,,,0.00,weatherlink.com 1.10,2013-04-02 16:50:00,
2013-04-02 12:05:00,38.9,16.0,30.30,NNW,329,3.0,11.0,40,0.00,,,0.00,weatherlink.com 1.10,2013-04-02 17:05:00,
2013-04-02 12:20:00,39.9,16.0,30.30,NW,315,6.0,11.0,38,0.00,,,0.00,weatherlink.com 1.10,2013-04-02 17:20:00,
2013-04-02 12:35:00,40.5,15.0,30.30,WNW,297,2.0,7.0,35,0.00,,,0.00,weatherlink.com 1.10,2013-04-02 17:35:00,
2013-04-02 12:50:00,41.2,15.0,30.29,North,360,1.0,9.0,34,0.00,,,0.00,weatherlink.com 1.10,2013-04-02 17:50:00,
2013-04-02 13:05:00,40.8,13.0,30.29,NNW,347,3.0,21.0,32,0.00,,,0.00,weatherlink.com 1.10,2013-04-02 18:05:00,
2013-04-02 13:20:00,41.6,13.0,30.29,WNW,299,7.0,12.0,31,0.00,,,0.00,weatherlink.com 1.10,2013-04-02 18:20:00,
2013-04-02 13:35:00,41.9,13.0,30.28,NW,306,3.0,11.0,31,0.00,,,0.00,weatherlink.com 1.10,2013-04-02 18:35:00,
2013-04-02 14:05:00,41.6,13.0,30.28,WSW,250,3.0,10.0,31,0.00,,,0.00,weatherlink.com 1.10,2013-04-02 19:05:00,
2013-04-02 14:20:00,41.8,12.0,30.27,WSW,250,2.0,11.0,30,0.00,,,0.00,weatherlink.com 1.10,2013-04-02 19:20:00,
2013-04-02 14:35:00,41.9,14.0,30.27,WSW,246,5.0,12.0,32,0.00,,,0.00,weatherlink.com 1.10,2013-04-02 19:35:00,
2013-04-02 14:50:00,41.5,16.0,30.27,WNW,294,5.0,13.0,35,0.00,,,0.00,weatherlink.com 1.10,2013-04-02 19:50:00,
2013-04-02 15:05:00,41.6,16.0,30.27,WSW,242,7.0,12.0,36,0.00,,,0.00,weatherlink.com 1.10,2013-04-02 20:05:00,
2013-04-02 15:20:00,42.9,16.0,30.27,NW,322,8.0,22.0,34,0.00,,,0.00,weatherlink.com 1.10,2013-04-02 20:20:00,
2013-04-02 15:35:00,42.6,16.0,30.27,NNW,331,5.0,11.0,34,0.00,,,0.00,weatherlink.com 1.10,2013-04-02 20:35:00,
2013-04-02 15:51:00,42.6,16.0,30.27,NNW,338,4.0,19.0,34,0.00,,,0.00,weatherlink.com 1.10,2013-04-02 20:51:00,
2013-04-02 16:06:00,41.2,16.0,30.27,NW,306,4.0,9.0,36,0.00,,,0.00,weatherlink.com 1.10,2013-04-02 21:06:00,
2013-04-02 16:21:00,41.3,16.0,30.27,NNW,333,3.0,11.0,36,0.00,,,0.00,weatherlink.com 1.10,2013-04-02 21:21:00,
2013-04-02 16:36:00,41.2,17.0,30.27,NNW,331,3.0,7.0,38,0.00,,,0.00,weatherlink.com 1.10,2013-04-02 21:36:00,
2013-04-02 16:51:00,41.2,17.0,30.27,NW,323,4.0,9.0,37,0.00,,,0.00,weatherlink.com 1.10,2013-04-02 21:51:00,
2013-04-02 17:21:00,42.3,17.0,30.27,NNW,340,3.0,10.0,36,0.00,,,0.00,weatherlink.com 1.10,2013-04-02 22:21:00,
2013-04-02 17:36:00,41.3,17.0,30.27,NW,319,4.0,11.0,38,0.00,,,0.00,weatherlink.com 1.10,2013-04-02 22:36:00,
2013-04-02 17:51:00,41.3,17.0,30.28,NW,305,4.0,11.0,38,0.00,,,0.00,weatherlink.com 1.10,2013-04-02 22:51:00,
2013-04-02 18:36:00,39.8,18.0,30.28,NNW,329,4.0,8.0,41,0.00,,,0.00,weatherlink.com 1.10,2013-04-02 23:36:00,
2013-04-02 18:51:00,38.8,18.0,30.29,NW,317,3.0,6.0,44,0.00,,,0.00,weatherlink.com 1.10,2013-04-02 23:51:00,
2013-04-02 19:10:00,38.0,19.0,30.29,NW,326,1.0,7.0,47,0.00,,,0.00,weatherlink.com 1.10,2013-04-03 00:10:00,
2013-04-02 19:21:00,37.1,20.0,30.29,NW,326,3.0,5.0,51,0.00,,,0.00,weatherlink.com 1.10,2013-04-03 00:21:00,
2013-04-02 19:36:00,36.3,20.0,30.30,NW,319,1.0,3.0,53,0.00,,,0.00,weatherlink.com 1.10,2013-04-03 00:36:00,
2013-04-02 19:51:00,35.4,19.0,30.30,NW,315,1.0,3.0,52,0.00,,,0.00,weatherlink.com 1.10,2013-04-03 00:51:00,
2013-04-02 20:06:00,34.9,20.0,30.30,NNW,328,0.0,3.0,54,0.00,,,0.00,weatherlink.com 1.10,2013-04-03 01:06:00,
2013-04-02 20:21:00,34.2,19.0,30.30,NNW,327,1.0,3.0,55,0.00,,,0.00,weatherlink.com 1.10,2013-04-03 01:21:00,
2013-04-02 20:36:00,33.7,19.0,30.31,NNW,327,0.0,1.0,56,0.00,,,0.00,weatherlink.com 1.10,2013-04-03 01:36:00,
2013-04-02 20:51:00,33.0,19.0,30.32,NNW,327,0.0,1.0,57,0.00,,,0.00,weatherlink.com 1.10,2013-04-03 01:51:00,
2013-04-02 21:06:00,31.6,21.0,30.32,NNW,327,1.0,2.0,65,0.00,,,0.00,weatherlink.com 1.10,2013-04-03 02:06:00,
2013-04-02 21:21:00,30.6,22.0,30.33,NNW,327,0.0,2.0,70,0.00,,,0.00,weatherlink.com 1.10,2013-04-03 02:21:00,
2013-04-02 21:37:00,29.7,22.0,30.33,NNW,327,1.0,3.0,72,0.00,,,0.00,weatherlink.com 1.10,2013-04-03 02:37:00,
2013-04-02 21:52:00,29.2,22.0,30.34,NNW,327,0.0,1.0,75,0.00,,,0.00,weatherlink.com 1.10,2013-04-03 02:52:00,
2013-04-02 22:07:00,28.4,22.0,30.34,NNW,327,1.0,1.0,78,0.00,,,0.00,weatherlink.com 1.10,2013-04-03 03:07:00,
2013-04-02 22:22:00,27.7,22.0,30.34,NNW,327,0.0,1.0,79,0.00,,,0.00,weatherlink.com 1.10,2013-04-03 03:22:00,
2013-04-02 22:37:00,27.2,22.0,30.34,NNW,327,1.0,1.0,80,0.00,,,0.00,weatherlink.com 1.10,2013-04-03 03:37:00,
2013-04-02 23:07:00,26.5,21.0,30.35,NW,323,0.0,0.0,81,0.00,,,0.00,weatherlink.com 1.10,2013-04-03 04:07:00,
2013-04-02 23:22:00,26.1,21.0,30.35,NW,323,0.0,0.0,82,0.00,,,0.00,weatherlink.com 1.10,2013-04-03 04:22:00,
2013-04-02 23:37:00,25.8,21.0,30.35,NW,323,0.0,0.0,83,0.00,,,0.00,weatherlink.com 1.10,2013-04-03 04:37:00,